Wind_Speed
10 10 11 12 16 17 21 22 21 24 24 23 23 22 24 26 33 45 46 45 46 46 49 52 53 50 50 51 50 51 50 45 43 46 43 41 40 38 36 34 34 33 32 28 23 21 15
15 12 11 10 10 14 14 15 18 24 25 25 26 27 27 26 26 26 26 27 27 30 33 33 33 32 32 32 34 36 39 41 44 42 40 39 38 37 39 38 37 38 37 34 29 24 19
22 19 16 14 15 11 9 12 15 18 20 25 27 29 31 33 33 31 32 34 36 36 37 37 37 38 35 34 35 37 38 41 41 44 41 40 42 43 42 41 43 44 41 39 36 30 26
16 18 16 17 14 16 16 11 10 10 6 8 12 18 22 22 27 32 33 35 35 38 39 39 41 39 40 43 42 42 44 45 43 42 46 42 43 41 44 46 44 44 47 46 44 38 32
15 16 16 14 17 12 11 14 16 14 15 13 12 12 12 14 17 22 28 27 31 30 35 41 45 45 46 49 48 46 44 43 44 40 44 45 42 40 40 38 39 47 54 52 48 45 39
12 15 18 18 17 18 16 17 16 14 18 20 18 18 18 21 31 32 36 36 37 37 34 35 41 47 48 50 49 49 45 42 40 37 38 41 41 39 43 43 38 46 46 56 54 55 46
15 18 18 20 20 19 21 18 20 20 21 20 22 27 27 28 33 36 37 38 42 39 38 39 35 39 39 46 47 49 48 47 41 37 35 35 39 44 47 44 45 45 48 54 62 60 56
20 23 25 23 23 23 22 20 23 25 22 20 26 32 34 36 33 37 43 38 41 46 42 40 41 42 42 42 41 40 44 44 47 45 42 38 41 48 46 47 48 49 47 52 66 67 62
23 25 29 32 33 26 22 25 27 27 28 31 32 38 43 42 43 43 46 47 49 47 45 43 46 46 46 46 47 47 44 40 42 47 49 44 47 45 49 48 52 52 51 54 61 72 67
26 26 33 33 37 34 24 26 26 25 31 39 40 47 46 45 47 48 46 51 51 53 52 37 48 53 55 52 52 50 48 46 43 42 46 47 50 48 48 50 55 51 59 58 61 70 71
34 36 36 36 41 44 46 36 44 49 50 52 46 52 55 52 53 53 49 54 56 57 53 44 42 47 55 56 55 54 56 54 53 49 47 47 48 51 50 53 56 54 58 61 61 67 71
36 34 41 45 46 47 42 42 51 57 54 55 48 53 54 54 54 59 59 56 61 60 56 48 51 47 50 56 57 58 59 61 63 59 53 54 51 52 54 55 58 56 57 58 60 63 60
40 45 48 53 53 45 48 51 57 57 59 57 53 54 50 53 57 63 60 63 69 68 63 60 58 54 50 54 57 59 59 61 67 70 65 61 58 56 55 56 58 58 55 54 55 57 58
50 54 54 57 59 55 52 54 53 60 64 62 58 54 54 54 53 59 65 68 71 69 68 68 64 61 59 60 52 56 59 64 68 70 70 67 66 64 59 61 58 57 59 54 55 56 60
58 60 61 66 62 56 53 55 67 65 65 57 58 57 56 60 72 74 76 75 70 70 73 70 67 63 66 68 62 61 59 61 66 73 75 74 69 69 62 63 66 59 59 64 58 58 61
63 67 68 64 62 62 64 69 67 68 66 72 70 67 66 76 76 81 79 73 73 76 80 76 73 68 68 71 71 68 65 68 68 72 75 74 73 68 64 65 66 70 67 67 66 63 67
69 66 66 63 65 68 72 72 71 74 74 70 72 67 78 78 84 81 83 81 84 82 79 80 78 74 70 72 73 76 76 74 72 71 74 77 79 72 68 62 67 74 71 72 75 71 70
66 66 66 72 76 75 75 78 78 76 74 73 76 81 81 87 89 91 90 88 80 77 80 83 87 88 84 81 78 77 78 84 83 83 82 83 81 78 77 80 75 75 75 77 81 78 81
71 75 79 81 83 83 82 83 80 79 81 84 85 88 95 96 94 94 91 87 89 90 90 94 92 92 94 94 88 81 86 88 89 91 89 87 91 85 81 84 86 85 84 82 86 88 82
83 83 84 85 87 85 86 84 86 89 89 93 98 102 101 99 100 99 99 97 99 97 100 101 97 101 101 101 101 98 89 92 90 94 97 96 94 94 89 89 95 96 93 93 91 93 84
83 86 87 89 91 91 92 93 96 101 103 105 107 103 102 102 105 104 107 107 108 112 108 109 109 111 112 105 102 99 102 95 94 98 100 103 98 100 94 90 99 103 99 100 95 92 97
90 92 95 96 97 99 100 102 105 105 105 102 102 105 110 110 110 113 114 116 119 114 114 113 113 113 110 104 100 94 94 96 92 99 106 104 99 102 96 90 99 99 100 95 103 100 97
100 100 100 102 102 103 105 103 104 107 111 113 119 120 118 115 118 120 120 123 124 120 115 115 116 114 109 102 100 94 93 92 93 94 101 102 100 100 93 93 99 99 91 99 100 105 110
107 110 112 114 115 115 117 118 119 122 122 124 127 129 128 124 124 123 126 125 121 119 115 113 113 111 104 97 95 96 93 89 89 90 93 94 96 97 91 87 94 92 92 96 99 102 106
117 118 120 122 125 127 125 128 128 128 131 130 127 128 126 120 120 120 123 120 119 121 117 110 107 104 98 95 92 87 87 87 88 90 93 95 96 101 96 94 94 94 95 98 101 103 104
128 130 131 133 132 135 136 132 133 134 133 130 128 132 129 117 116 119 115 118 113 112 108 103 96 94 91 90 91 91 92 95 96 96 96 95 93 91 87 87 82 84 85 86 90 94 97
135 140 140 138 140 144 140 134 134 133 135 134 134 131 126 120 112 112 111 108 107 100 96 97 95 96 96 95 96 96 92 90 86 86 84 85 85 83 82 78 74 71 71 74 78 78 81
144 143 142 146 147 144 139 138 138 137 135 134 122 119 120 116 110 109 106 101 97 96 97 99 99 98 95 93 88 86 85 84 80 77 73 72 72 71 71 68 66 66 67 71 71 72 72
144 145 144 144 144 143 140 140 134 131 127 125 118 117 116 111 104 102 96 96 100 99 98 94 89 87 85 86 85 82 78 73 69 65 63 61 62 63 64 65 65 65 65 67 69 68 68
Wind_Direction
3 337 317 297 293 286 285 276 279 286 287 284 287 291 283 272 268 267 270 274 275 277 275 276 279 281 283 283 286 287 283 283 277 276 277 278 273 267 265 260 256 256 261 259 251 246 244
34 22 9 351 328 296 289 283 274 270 278 281 283 284 281 284 283 283 283 279 284 284 284 282 285 285 285 288 287 288 289 288 282 274 278 271 270 268 266 262 259 250 253 254 247 240 227
33 32 22 13 5 1 338 311 296 292 290 287 285 286 284 279 280 279 283 286 288 287 287 285 286 288 286 288 289 291 294 293 288 281 269 271 269 267 264 268 261 250 242 248 244 238 235
14 16 18 17 4 352 348 345 334 319 339 326 315 298 296 292 287 283 288 289 284 283 276 273 277 276 278 284 285 286 290 293 293 284 269 266 269 270 268 266 260 249 238 240 243 241 237
350 5 10 5 4 9 359 344 329 322 317 321 320 327 331 341 333 328 328 310 317 306 285 276 278 279 281 280 282 284 287 290 293 288 275 263 268 274 274 261 260 251 237 234 240 242 238
342 348 353 346 344 343 332 333 339 313 328 323 306 314 326 327 335 331 336 327 320 318 304 289 284 280 278 277 281 281 284 285 291 289 280 267 265 272 267 262 260 258 250 238 235 241 233
356 347 345 337 335 326 329 313 319 315 311 320 325 321 316 318 325 329 333 339 337 319 313 307 290 291 282 283 284 282 283 279 284 283 282 278 271 272 270 265 262 264 255 245 239 234 238
336 329 321 321 323 318 319 318 316 317 313 321 325 329 334 324 327 329 331 339 341 339 308 302 302 298 297 295 291 287 282 282 278 278 276 275 285 271 268 264 263 265 262 250 243 238 234
329 323 321 318 313 313 313 325 320 323 311 308 308 315 321 320 319 323 322 333 326 330 335 295 295 294 294 291 294 297 293 283 284 281 275 275 277 279 269 263 264 263 268 260 247 243 236
316 319 324 312 318 311 305 315 325 322 322 321 304 314 313 312 307 313 314 325 325 327 338 309 293 294 296 295 293 291 294 294 286 281 279 278 275 278 271 267 266 265 271 268 255 245 239
311 317 324 317 316 316 311 294 315 324 323 318 315 317 310 302 304 299 307 313 320 321 328 312 303 290 285 288 290 290 290 289 289 288 279 277 272 272 272 268 268 267 272 268 259 248 241
303 300 307 310 316 311 304 290 309 310 312 314 313 308 303 298 299 299 299 300 313 317 312 302 299 293 287 285 284 288 289 289 286 285 284 282 275 272 269 270 268 267 273 267 261 250 249
293 303 306 308 311 304 300 300 300 305 310 312 308 309 301 298 298 299 301 303 309 312 305 307 303 292 285 282 277 285 285 284 283 283 282 281 281 273 273 270 274 271 273 267 260 254 247
297 304 308 306 305 302 299 297 299 304 308 308 308 307 298 301 306 306 303 306 307 302 309 308 305 303 295 283 285 284 281 278 278 279 279 280 281 280 273 273 268 272 273 274 257 254 247
294 298 300 304 301 295 299 299 307 306 307 304 302 299 302 300 308 311 310 312 302 298 305 305 303 297 290 291 293 288 281 283 280 274 278 276 276 276 272 275 274 265 268 266 265 255 244
293 294 298 301 295 294 298 302 305 305 303 304 305 299 300 305 306 308 311 306 301 305 304 301 300 301 291 287 285 286 287 285 283 279 276 274 276 278 275 271 275 271 261 261 263 259 252
295 296 297 295 295 297 301 298 302 304 303 301 298 297 301 304 305 306 307 305 303 303 302 298 299 297 297 290 290 287 289 287 285 283 277 274 274 273 277 277 272 269 265 261 259 257 257
297 297 295 296 299 298 299 301 302 303 299 299 298 301 301 301 302 304 305 306 301 300 299 300 299 297 295 294 293 289 288 285 284 283 280 279 278 270 269 271 272 270 269 267 258 254 253
295 295 296 296 298 300 301 300 299 296 299 299 297 299 300 301 302 302 304 300 299 297 297 297 297 296 293 292 290 288 287 287 281 280 280 279 278 276 271 269 273 272 267 266 265 257 251
295 296 296 296 297 298 299 300 296 297 297 296 297 299 300 301 301 302 302 302 299 296 295 295 294 294 292 292 290 289 287 284 281 277 278 278 277 277 275 271 268 268 269 264 263 260 255
294 294 295 296 298 298 298 299 298 299 298 299 299 297 298 299 300 301 300 300 299 298 295 294 294 293 294 296 290 286 287 287 278 277 278 276 277 277 274 272 268 267 265 265 262 261 260
294 296 297 296 297 297 298 298 300 298 297 295 293 294 296 297 297 297 297 298 299 294 296 295 293 292 293 293 293 288 284 281 279 275 276 276 276 274 273 273 267 264 263 266 263 260 257
295 295 296 297 298 297 296 294 292 293 294 294 294 294 294 294 295 296 296 297 296 297 295 294 293 294 292 289 291 288 286 282 280 277 275 276 276 273 272 269 265 265 266 263 260 260 259
294 294 295 295 295 295 295 295 296 295 294 295 294 295 293 292 293 294 294 294 295 296 297 294 293 293 290 289 288 288 286 283 280 278 277 276 275 274 272 268 267 266 264 262 261 259 259
292 293 294 294 295 295 294 294 295 295 295 294 294 294 292 292 292 294 294 295 294 295 296 295 292 290 289 289 288 286 286 286 284 283 280 279 277 276 274 270 267 267 264 263 261 260 259
292 293 295 295 296 297 295 294 292 292 294 293 293 293 293 292 293 295 294 294 294 293 294 293 290 290 289 289 289 289 288 286 284 283 280 278 275 274 272 269 266 263 263 261 260 258 257
292 293 294 295 295 296 294 293 294 293 292 292 294 292 291 293 295 295 295 295 293 292 291 290 290 290 290 291 290 288 286 283 282 280 277 276 275 272 270 267 265 261 260 258 257 257 257
293 293 292 293 294 294 292 291 291 292 291 292 294 293 292 294 295 293 293 292 290 289 290 291 290 289 289 289 287 287 286 284 282 279 275 271 269 267 267 266 264 261 258 256 256 255 254
292 295 294 293 292 292 292 291 290 291 291 291 293 293 292 293 292 291 291 290 290 291 291 289 289 289 288 288 288 287 284 282 278 273 271 268 267 266 266 265 262 260 257 256 255 255 254
Height
10767 10767 10767 10767 10767 10767 10767 10768 10768 10768 10767 10766 10765 10763 10761 10759 10757 10756 10754 10753 10752 10751 10749 10746 10743 10740 10737 10736 10734 10731 10729 10727 10725 10723 10723 10723 10723 10723 10724 10725 10725 10726 10726 10724 10724 10723 10723
10768 10767 10766 10765 10763 10763 10762 10762 10762 10762 10761 10760 10759 10758 10756 10755 10754 10753 10751 10748 10747 10744 10741 10739 10736 10734 10731 10729 10726 10724 10721 10719 10717 10715 10714 10714 10714 10715 10716 10716 10718 10718 10720 10720 10719 10718 10718
10770 10769 10768 10765 10764 10763 10761 10760 10759 10759 10757 10755 10753 10752 10750 10748 10747 10746 10745 10743 10741 10738 10736 10734 10731 10728 10724 10723 10719 10717 10714 10711 10708 10705 10705 10705 10705 10707 10706 10707 10708 10709 10712 10713 10712 10712 10712
10770 10768 10767 10765 10764 10762 10759 10758 10756 10755 10753 10752 10749 10746 10744 10741 10740 10739 10738 10736 10733 10731 10728 10725 10722 10720 10716 10715 10713 10710 10707 10704 10700 10696 10694 10695 10697 10698 10697 10696 10697 10699 10701 10702 10703 10704 10704
10769 10768 10766 10764 10762 10760 10758 10757 10755 10753 10751 10748 10746 10743 10741 10739 10737 10735 10733 10729 10726 10721 10718 10716 10713 10712 10708 10704 10704 10701 10699 10695 10692 10688 10685 10686 10688 10689 10686 10684 10688 10687 10689 10691 10696 10697 10698
10766 10764 10763 10761 10759 10757 10755 10753 10751 10750 10747 10745 10743 10740 10737 10735 10732 10729 10726 10723 10719 10715 10710 10705 10703 10700 10698 10694 10692 10690 10688 10687 10684 10680 10677 10677 10679 10678 10673 10676 10679 10676 10681 10683 10684 10683 10689
10761 10760 10759 10757 10754 10752 10750 10748 10746 10744 10741 10739 10737 10735 10731 10728 10725 10722 10719 10715 10712 10708 10701 10697 10693 10688 10687 10681 10680 10676 10676 10676 10675 10672 10670 10670 10670 10666 10663 10666 10667 10665 10667 10672 10671 10672 10677
10758 10756 10754 10752 10750 10747 10745 10742 10740 10738 10736 10733 10731 10728 10724 10721 10718 10715 10712 10707 10704 10702 10694 10685 10680 10678 10675 10671 10668 10665 10664 10664 10662 10661 10659 10662 10658 10651 10653 10653 10654 10654 10654 10659 10655 10660 10663
10752 10751 10748 10745 10743 10742 10738 10736 10733 10731 10729 10727 10723 10720 10717 10713 10708 10705 10701 10698 10694 10692 10689 10678 10669 10665 10663 10662 10659 10656 10653 10651 10652 10648 10647 10650 10642 10643 10640 10640 10640 10641 10642 10641 10642 10641 10655
10745 10744 10742 10739 10737 10734 10731 10728 10727 10724 10723 10720 10715 10712 10708 10704 10699 10694 10691 10687 10684 10680 10678 10671 10664 10656 10651 10649 10647 10645 10642 10640 10638 10637 10635 10634 10630 10630 10630 10627 10621 10630 10622 10626 10627 10624 10637
10739 10737 10734 10732 10729 10726 10723 10720 10717 10715 10713 10709 10705 10702 10696 10690 10687 10683 10680 10675 10671 10669 10666 10663 10656 10648 10642 10638 10635 10633 10629 10628 10626 10624 10621 10620 10620 10617 10616 10613 10609 10612 10608 10605 10606 10611 10614
10731 10728 10726 10724 10722 10717 10714 10711 10708 10706 10703 10699 10695 10689 10684 10678 10673 10671 10667 10662 10659 10655 10651 10647 10642 10636 10630 10626 10623 10620 10616 10615 10611 10609 10609 10606 10607 10604 10600 10599 10595 10596 10592 10590 10589 10592 10602
10722 10721 10717 10714 10712 10708 10704 10701 10697 10695 10691 10688 10682 10676 10669 10663 10661 10656 10653 10650 10647 10641 10633 10634 10629 10623 10619 10615 10611 10608 10605 10600 10593 10590 10592 10593 10591 10590 10588 10584 10580 10581 10578 10576 10577 10577 10593
10713 10710 10707 10704 10700 10696 10693 10689 10685 10682 10677 10673 10669 10664 10657 10650 10647 10645 10641 10635 10631 10626 10620 10615 10612 10608 10604 10597 10598 10593 10590 10585 10579 10570 10575 10575 10576 10573 10576 10567 10568 10568 10563 10563 10557 10563 10572
10702 10698 10695 10692 10688 10683 10679 10675 10671 10667 10662 10659 10654 10650 10645 10635 10633 10628 10625 10621 10613 10606 10604 10597 10594 10592 10588 10581 10580 10577 10573 10568 10562 10557 10554 10552 10558 10557 10560 10556 10549 10555 10552 10542 10548 10549 10552
10690 10685 10682 10678 10674 10669 10665 10660 10656 10652 10647 10644 10641 10636 10629 10622 10615 10610 10607 10601 10592 10590 10582 10578 10575 10573 10570 10564 10561 10560 10557 10552 10547 10539 10533 10535 10537 10540 10542 10542 10538 10529 10532 10531 10530 10533 10536
10674 10670 10666 10661 10658 10655 10648 10643 10641 10635 10630 10626 10622 10617 10613 10603 10595 10591 10586 10581 10576 10566 10561 10557 10555 10551 10548 10544 10542 10539 10536 10532 10525 10523 10518 10513 10511 10526 10522 10524 10518 10512 10514 10514 10510 10515 10518
10659 10655 10651 10646 10642 10636 10631 10625 10621 10616 10611 10607 10604 10600 10595 10586 10579 10573 10567 10559 10554 10547 10540 10536 10532 10527 10524 10520 10521 10517 10514 10506 10503 10498 10497 10489 10490 10501 10506 10499 10498 10493 10494 10488 10486 10495 10492
10643 10638 10633 10628 10623 10617 10611 10606 10601 10597 10592 10587 10583 10580 10573 10566 10560 10553 10546 10539 10530 10523 10517 10509 10506 10503 10497 10496 10493 10493 10486 10482 10477 10471 10471 10467 10459 10470 10484 10479 10474 10470 10470 10465 10462 10463 10482
10623 10617 10613 10607 10602 10597 10591 10585 10579 10575 10571 10567 10561 10557 10548 10542 10535 10526 10517 10514 10505 10502 10492 10482 10480 10472 10467 10468 10462 10464 10458 10454 10450 10444 10439 10433 10437 10438 10448 10453 10443 10441 10444 10442 10437 10440 10469
10605 10600 10594 10587 10579 10576 10571 10566 10559 10552 10547 10540 10532 10528 10519 10516 10510 10500 10490 10489 10479 10467 10464 10454 10451 10441 10434 10435 10431 10426 10424 10421 10422 10414 10406 10398 10407 10399 10409 10422 10410 10407 10410 10415 10417 10424 10414
10582 10577 10571 10565 10558 10551 10546 10540 10531 10525 10519 10510 10502 10497 10493 10490 10480 10472 10464 10460 10452 10437 10433 10427 10416 10409 10404 10398 10392 10397 10392 10382 10389 10383 10369 10367 10375 10364 10374 10386 10369 10368 10380 10394 10387 10391 10387
10556 10552 10547 10541 10534 10528 10521 10514 10506 10498 10494 10484 10472 10466 10465 10467 10451 10441 10430 10423 10417 10407 10403 10392 10380 10378 10371 10362 10358 10359 10358 10357 10351 10348 10335 10333 10332 10329 10340 10344 10333 10336 10363 10350 10352 10359 10357
10531 10524 10518 10512 10505 10497 10489 10482 10473 10465 10459 10454 10440 10433 10428 10433 10421 10409 10397 10389 10384 10375 10370 10360 10346 10339 10336 10332 10328 10326 10323 10320 10313 10313 10304 10302 10297 10291 10301 10309 10299 10314 10317 10319 10320 10324 10326
10504 10497 10490 10483 10476 10468 10460 10450 10440 10429 10423 10419 10408 10396 10389 10399 10391 10379 10363 10355 10347 10339 10331 10324 10315 10306 10302 10298 10296 10297 10291 10287 10281 10278 10272 10267 10266 10254 10260 10269 10270 10276 10280 10284 10288 10292 10295
10473 10466 10459 10451 10442 10435 10426 10415 10406 10397 10384 10378 10377 10360 10352 10360 10361 10343 10334 10318 10315 10306 10299 10292 10283 10275 10269 10266 10262 10263 10261 10256 10253 10248 10239 10230 10228 10223 10229 10226 10237 10243 10246 10251 10253 10259 10263
10442 10434 10427 10417 10407 10401 10391 10379 10370 10361 10350 10342 10343 10325 10316 10318 10325 10309 10298 10291 10280 10272 10271 10263 10253 10246 10240 10237 10233 10229 10226 10219 10219 10214 10212 10201 10196 10196 10196 10197 10207 10215 10218 10219 10220 10230 10235
10405 10397 10390 10382 10371 10361 10353 10345 10338 10328 10318 10309 10308 10292 10279 10279 10288 10274 10268 10260 10249 10243 10238 10235 10225 10215 10212 10206 10201 10197 10194 10189 10186 10182 10181 10178 10175 10174 10172 10176 10183 10189 10194 10195 10200 10206 10211
10366 10360 10349 10340 10334 10323 10315 10308 10301 10292 10283 10275 10275 10261 10247 10246 10253 10243 10239 10229 10219 10212 10209 10202 10197 10189 10183 10178 10173 10171 10166 10162 10159 10159 10156 10158 10155 10154 10155 10157 10161 10166 10171 10175 10180 10186 10191